Regional Weather Roundup
Issued by NWS Charleston, SC

Home | Current Version | Previous Version | Text Only | Print | Product List | Glossary On
Versions: 1 2 3 4 5 6 7 8 9 10 11 12 13 14 15 16 17 18 19 20 21 22 23 24 25 26 27 28 29 30 31 32 33 34 35 36 37 38 39 40 41 42 43 44 45 46 47 48 49 50
000
ASUS42 KCHS 201227
RWRCHS

REGIONAL WEATHER ROUNDUP
NATIONAL WEATHER SERVICE CHARLESTON SC
800 AM EDT SUN AUG 20 2017

NOTE: "FAIR" INDICATES FEW OR NO CLOUDS BELOW 12,000 FEET WITH NO
SIGNIFICANT WEATHER AND/OR OBSTRUCTIONS TO VISIBILITY.

NOT ALL STATIONS ARE QUALITY CONTROLLED. USE DATA WITH CAUTION...
ESPECIALLY DEWPOINT OBSERVATIONS.

SCZ027-030-031-034>040-042>050-201300-
...SOUTHEAST SOUTH CAROLINA...

CITY           SKY/WX    TMP DP  RH WIND       PRES   REMARKS
N CHARLESTON   CLOUDY    80  79  96 CALM      30.05R
6HR MIN TEMP:  78; 6HR MAX TEMP:  80;

WATERFRONT PRK   N/A     83  80  90 CALM      29.89R HX  96
JOHNS ISLAND   FAIR      81  81 100 CALM      30.06R HX  91
PINOPOLIS        N/A     79  79 100 CALM      29.97R
MONCKS CORNER  FOG       75  75 100 CALM      30.06R VSB<1/4
SUMMERVILLE    FOG       75  75 100 CALM      30.07R VSB 1/4
BEAUFORT MCAS  MOSUNNY   81  80  97 SE3       30.06R HX  91
6HR MIN TEMP:  77; 6HR MAX TEMP:  82;

BEAUFORT ARPT  FAIR      79  73  83 CALM      30.05S
HILTON HEAD IS PTSUNNY   81  77  89 SE9       30.06R
WALTERBORO     FOG       75  75 100 CALM      30.07R VSB 1/2
ALLENDALE      NOT AVBL

...SOUTHERN MIDLANDS AND PEE DEE...

CITY           SKY/WX    TMP DP  RH WIND       PRES   REMARKS
GEORGETOWN     FAIR      79  77  94 CALM      30.06S
KINGSTREE      FAIR      79  77  94 CALM      30.05R
ORANGEBURG     MOSUNNY   74  71  91 CALM      30.06R
6HR MIN TEMP:  72; 6HR MAX TEMP:  75;

BARNWELL       FAIR      79  73  83 CALM      30.06R
AIKEN          FAIR      73  70  88 CALM      30.10R
MANNING        FAIR      77  73  88 N10       30.05S
COLUMBIA       PTSUNNY   78  70  76 CALM      30.05R
6HR MIN TEMP:  73; 6HR MAX TEMP:  79;

SUMTER         MOSUNNY   77  69  76 CALM      30.03R
6HR MIN TEMP:  72; 6HR MAX TEMP:  77;

FLORENCE       SUNNY     77  76  96 CALM      30.06R
6HR MIN TEMP:  73; 6HR MAX TEMP:  78;

MYRTLE BEACH   MOSUNNY   81  79  94 S9        30.05R
N MYRTLE BEACH MOSUNNY   80  79  96 W3        30.04R
6HR MIN TEMP:  79; 6HR MAX TEMP:  82;


$$

GAZ063-065-086>088-099>101-113>116-118-119-134>141-150-201300-
...SOUTHEAST GEORGIA...

CITY           SKY/WX    TMP DP  RH WIND       PRES   REMARKS
SAVANNAH ARPT  PTSUNNY   79  75  87 S5        30.06R
6HR MIN TEMP:  77; 6HR MAX TEMP:  80;

HUNTER AAF     MOSUNNY   79  74  85 CALM      30.03R
6HR MIN TEMP:  77; 6HR MAX TEMP:  80; 6HR PCP: TRACE;

FORT STEWART   SUNNY     76  73  90 CALM      30.03R
6HR MIN TEMP:  75; 6HR MAX TEMP:  78;

STATESBORO     MOSUNNY   76  76  99 CALM      30.06R
SYLVANIA       PTSUNNY   75  75 100 CALM      30.07R FOG
CLAXTON        FAIR      74  74  97 CALM      30.05R FOG

...CSRA...CENTRAL AND FAR SOUTHEAST GEORGIA...

CITY           SKY/WX    TMP DP  RH WIND       PRES   REMARKS
THOMSON        SUNNY     73  69  88 CALM      30.12R
AUGUSTA-BUSH   SUNNY     74  71  91 CALM      30.04R FOG
6HR MIN TEMP:  70; 6HR MAX TEMP:  76;

AUGUSTA-DANIEL SUNNY     78  68  71 CALM      30.06R
SWAINSBORO     FAIR      73  73 100 CALM      30.06S
VIDALIA        SUNNY     77  72  83 CALM      30.06R
EASTMAN        FAIR      72  72 100 CALM      30.08R
HAZLEHURST     FAIR      77  67  69 CALM      30.04R
ALMA           SUNNY     76  74  93 CALM      30.04R FOG
6HR MIN TEMP:  72; 6HR MAX TEMP:  77;

WAYCROSS       SUNNY     78  75  90 CALM      30.04R
JESUP          FAIR      79  73  83 CALM      30.05R
BAXLEY         PTSUNNY   73  73 100 CALM      30.04R
BRUNSWICK      SUNNY     79  72  78 CALM      30.05S
SAINT SIMONS   SUNNY     81  76  84 SW5       30.03R
6HR MIN TEMP:  79; 6HR MAX TEMP:  85;


$$

SCZ027-028-034-036>038-045-046-048>050-GAZ119-141-201300-
...LAKE AND SUPPLEMENTAL COASTAL OBSERVATIONS...

STATION/POSITION TIME  TEMP    WIND        PRES    WAVE   SWELL
                       AIR SEA DIR/SP/G            HT/PER HT/PER/DIR
                 (UTC) (F)     (DEG/KT/KT) (MB)    (FT/S) (FT/S/D)
WINYAH BAY       1145   80     240/  3     1017.0S
LAKE MURRAY      1120   77      20/  1/  2 1016.6R
ACE BASIN NERRS  1145   80        CALM     1018.0R
FORT PULASKI     1200   83 87   30/  1/  2 1017.9
SAPELO ISLAND    1200   81        CALM     1017.0

$$

ANZ835-935-AMZ111-154-330-350-352-354-370-450-454-472-201300-
...C-MAN AND BUOY OBSERVATIONS...

STATION/POSITION TIME  TEMP    WIND        PRES    WAVE   SWELL
                       AIR SEA DIR/SP/G            HT/PER HT/PER/DIR
                 (UTC) (F)     (DEG/KT/KT) (MB)    (FT/S) (FT/S/D)
BUOY 41004       1210   84 84  230/  8/ 10 1017.3
BUOY 41008       1150   84 85  210/ 10/ 12 1016.9R   3/ 9   2/100/ 9
FOLLY BEACH CMAN 1200   84     250/  2/  2 1018.3R
CAPERS NEARSHORE 1208   83 86  230/  8/ 12 1017.5R
FRIPP NEARSHORE  1208   80     210/ 10/ 14 1017.0R


STATION/POSITION TIME  TEMP    WIND        PRES    WAVE   SWELL
                       AIR SEA DIR/SP/G            HT/PER HT/PER/DIR
                 (UTC) (F)     (DEG/KT/KT) (MB)    (FT/S) (FT/S/D)
5E ST. MARYS GA  1200      84                N/A     3/ 8
FRYING PAN BUOY  1210   84 84  230/ 10/ 12 1017.7
BUOY 41025       1150   80 82  270/ 10/ 10 1018.0R   3/ 9   2/160/ 9
CAPE LOOKOUT NC  1200   76      70/ 13/ 15 1017.8R
BUOY 41002       1150   81 84  280/  4/  6 1019.2R   3/ 9   3/130/ 9
BUOY 41010       1210   84 85  170/  6/  8 1017.0
ST AUGUSTINE FL  1200   79 80  190/  2/  3 1017.4R


$$



USA.gov is the U.S. government's official web portal to all federal, state and local government web resources and services.